1508094000.75,32037,15.5,74980.8,3.51,-23.09,-23.53,0,*70
1508094001.98,32038,15.44,74976.5,3.51,-23.09,-23.53,0,*7F
1508094003.19,32039,15.5,74982.5,3.51,-23.09,-23.43,0,*7F
1508094004.42,32040,15.44,74976.3,3.53,-22.97,-23.43,0,*75
1508094005.68,32041,15.44,74976.3,3.53,-23.09,-23.53,0,*73
1508094006.91,32042,15.5,74978.5,3.51,-23.09,-23.53,0,*72
1508094008.16,32043,15.5,74980.0,3.49,-23.13,-23.49,0,*7A
1508094009.37,32044,15.5,74978.8,3.51,-22.97,-23.43,0,*73
1508094010.59,32045,15.44,74980.0,3.51,-23.09,-23.43,0,*74
1508094011.79,32046,15.44,74976.5,3.51,-23.09,-23.39,0,*7A
1508094013.02,32047,15.5,74982.0,3.49,-23.13,-23.59,0,*7F
1508094014.22,32048,15.5,74982.0,3.51,-23.09,-23.59,0,*72
1508094015.45,32049,15.5,74980.3,3.51,-22.67,-23.23,0,*77
1508094016.72,32050,15.5,74980.3,3.49,-23.03,-23.43,0,*73
1508094017.95,32051,15.44,74978.5,3.51,-23.09,-23.53,0,*70
1508094019.2,32052,15.44,74982.5,3.49,-23.19,-23.59,0,*71
1508094020.43,32053,15.44,74982.0,3.51,-22.97,-23.53,0,*74
1508094021.65,32054,15.5,74982.0,3.51,-22.93,-23.53,0,*77
1508094022.93,32055,15.5,74980.3,3.49,-23.19,-23.65,0,*79
1508094024.16,32056,15.44,74978.5,3.51,-23.13,-23.53,0,*7C
1508094025.39,32057,15.5,74980.0,3.51,-23.09,-23.53,0,*76
1508094026.59,32058,15.44,74980.8,3.51,-23.09,-23.59,0,*73
1508094027.85,32059,15.5,74982.0,3.49,-23.13,-23.49,0,*71
1508094029.11,32060,15.44,74978.8,3.49,-23.03,-23.43,0,*70
1508094030.39,32061,15.44,74976.8,3.49,-23.03,-23.49,0,*7B
1508094031.62,32062,15.44,74978.3,3.49,-23.13,-23.59,0,*78
1508094032.87,32063,15.44,74980.3,3.49,-23.13,-23.49,0,*78
1508094034.13,32064,15.5,74982.5,3.49,-23.03,-23.43,0,*74
1508094035.38,32065,15.5,74982.3,3.45,-23.09,-23.65,0,*77
1508094036.65,32066,15.5,74980.5,3.45,-23.23,-23.65,0,*7C
1508094037.93,32067,15.44,74978.8,3.45,-23.19,-23.65,0,*74
1508094039.2,32068,15.5,74982.8,3.45,-23.23,-23.65,0,*72
1508094040.45,32069,15.44,74980.8,3.45,-23.03,-23.39,0,*78
1508094041.7,32070,15.5,74980.3,3.45,-23.09,-23.49,0,*7D
1508094042.95,32071,15.5,74980.0,3.43,-23.19,-23.65,0,*75
1508094044.2,32072,15.44,74980.8,3.45,-23.09,-23.53,0,*74
1508094045.48,32073,15.44,74980.3,3.45,-23.23,-23.65,0,*78
1508094046.75,32074,15.44,74980.8,3.45,-23.19,-23.65,0,*76
1508094047.98,32075,15.44,74980.8,3.43,-23.09,-23.49,0,*7E
1508094049.21,32076,15.44,74982.5,3.45,-23.09,-23.39,0,*7C
1508094050.46,32077,15.5,74982.0,3.45,-23.09,-23.53,0,*71
1508094051.69,32078,15.5,74980.5,3.45,-23.09,-23.39,0,*72
1508094052.97,32079,15.44,74978.8,3.45,-22.77,-23.23,0,*70
1508094054.23,32080,15.44,74976.5,3.49,-22.73,-22.97,0,*70
1508094055.48,32081,15.5,74980.3,3.45,-22.87,-23.03,0,*7A
1508094056.7,32082,15.5,74980.3,3.45,-22.87,-23.09,0,*73
1508094057.96,32083,15.44,74976.8,3.45,-22.93,-23.19,0,*76
1508094059.24,32084,15.44,74980.5,3.45,-23.03,-23.33,0,*71
1508094060.47,32085,15.44,74978.5,3.45,-22.87,-23.09,0,*74
1508094061.69,32086,15.44,74978.0,3.45,-22.87,-23.09,0,*77
1508094062.95,32087,15.44,74978.8,3.45,-22.93,-23.19,0,*72
1508094064.21,32088,15.44,74980.0,3.45,-22.93,-23.03,0,*76
1508094065.46,32089,15.44,74978.0,3.49,-22.73,-22.87,0,*78
1508094066.71,32090,15.44,74978.0,3.45,-22.73,-22.87,0,*7C
1508094067.96,32091,15.44,74980.0,3.49,-22.73,-22.97,0,*70
1508094069.22,32092,15.44,74978.5,3.49,-22.73,-22.97,0,*73
1508094070.5,32093,15.5,74982.3,3.49,-23.03,-23.29,0,*70
1508094071.75,32094,15.44,74976.5,3.45,-23.09,-23.23,0,*7B
1508094073.01,32095,15.44,74978.0,3.45,-23.03,-23.09,0,*78
1508094074.27,32096,15.44,74978.3,3.45,-22.77,-22.93,0,*7B
1508094075.5,32097,15.44,74980.8,3.43,-22.93,-23.19,0,*75
1508094076.73,32098,15.44,74978.5,3.45,-22.87,-23.09,0,*78
1508094077.96,32099,15.44,74976.0,3.49,-22.83,-22.97,0,*77
1508094079.16,32100,15.44,74980.3,3.43,-23.09,-23.39,0,*7A
1508094080.44,32101,15.44,74982.3,3.45,-23.03,-23.19,0,*75
1508094081.7,32102,15.44,74980.5,3.45,-23.09,-23.33,0,*74
1508094082.93,32103,15.44,74978.5,3.49,-22.87,-22.97,0,*71
1508094084.19,32104,15.44,74978.5,3.45,-23.09,-23.19,0,*7A
1508094085.41,32105,15.5,74978.3,3.45,-22.87,-23.09,0,*7D
1508094086.67,32106,15.5,74980.3,3.45,-23.09,-23.23,0,*71
1508094087.93,32107,15.44,74978.3,3.45,-23.09,-23.23,0,*70
1508094089.19,32108,15.44,74980.5,3.45,-22.93,-23.23,0,*7D
1508094090.47,32109,15.44,74982.0,3.45,-23.03,-23.23,0,*74
1508094091.73,32110,15.44,74978.5,3.45,-22.87,-23.23,0,*71
1508094092.96,32111,15.44,74978.8,3.43,-22.93,-23.19,0,*7A
1508094094.21,32112,15.44,74976.0,3.43,-23.19,-23.23,0,*73
1508094095.45,32113,15.5,74980.0,3.43,-23.09,-23.23,0,*73
1508094096.71,32114,15.44,74980.8,3.45,-22.93,-23.19,0,*79
1508094097.96,32115,15.44,74982.8,3.45,-23.09,-23.33,0,*72
1508094099.22,32116,15.5,74982.8,3.45,-22.93,-23.23,0,*72
1508094100.48,32117,15.44,74978.8,3.45,-23.09,-23.23,0,*71
1508094101.71,32118,15.44,74980.5,3.43,-23.03,-23.09,0,*7A
1508094102.94,32119,15.44,74982.5,3.43,-23.09,-23.23,0,*79
1508094104.23,32120,15.44,74982.0,3.45,-23.03,-23.23,0,*7F
1508094105.49,32121,15.44,74978.8,3.45,-22.77,-22.93,0,*76
1508094106.71,32122,15.44,74980.8,3.45,-22.87,-23.09,0,*78
1508094107.97,32123,15.44,74978.5,3.43,-22.77,-23.03,0,*7A
1508094109.2,32124,15.44,74982.0,3.43,-23.03,-23.09,0,*75
1508094110.46,32125,15.44,74982.3,3.45,-22.93,-23.19,0,*7B
1508094111.68,32126,15.44,74982.3,3.43,-22.73,-22.93,0,*73
1508094112.92,32127,15.44,74982.0,3.43,-22.93,-23.19,0,*7F
1508094114.14,32128,15.44,74980.5,3.45,-22.67,-22.93,0,*7E
1508094115.43,32129,15.44,74976.5,3.45,-23.03,-23.23,0,*76
1508094116.65,32130,15.44,74978.8,3.43,-22.87,-23.19,0,*7C
1508094117.88,32131,15.5,74980.5,3.45,-22.87,-22.93,0,*78
1508094119.13,32132,15.44,74976.3,3.43,-23.03,-23.23,0,*7A
1508094120.39,32133,15.44,74976.5,3.45,-22.77,-23.09,0,*77
1508094121.59,32134,15.44,74976.3,3.43,-22.87,-23.09,0,*79
1508094122.85,32135,15.44,74978.5,3.43,-23.03,-23.23,0,*7D
1508094124.07,32136,15.44,74978.5,3.43,-22.87,-23.19,0,*7A
1508094125.32,32137,15.44,74978.8,3.45,-22.87,-23.03,0,*76
1508094126.55,32138,15.44,74978.5,3.45,-22.87,-23.09,0,*73
1508094127.81,32139,15.44,74980.0,3.43,-22.77,-23.03,0,*71
1508094129.05,32140,15.44,74976.5,3.45,-22.73,-22.87,0,*70
1508094130.3,32141,15.44,74980.0,3.43,-22.73,-22.77,0,*78
1508094131.51,32142,15.44,74978.0,3.43,-22.93,-23.09,0,*7D
1508094132.73,32143,15.44,74976.0,3.43,-22.87,-23.03,0,*73
1508094133.97,32144,15.44,74978.5,3.43,-23.09,-23.23,0,*71
1508094135.22,32145,15.44,74976.8,3.45,-22.73,-22.93,0,*70
1508094136.45,32146,15.44,74976.8,3.43,-22.73,-22.93,0,*75
1508094137.68,32147,15.44,74976.8,3.43,-22.93,-23.19,0,*79
1508094138.89,32148,15.44,74978.5,3.43,-22.93,-23.09,0,*77
1508094140.14,32149,15.44,74976.8,3.45,-22.77,-22.93,0,*78
1508094141.37,32150,15.44,74980.0,3.45,-22.67,-22.87,0,*74
1508094142.63,32151,15.44,74976.8,3.45,-23.09,-23.23,0,*73
1508094143.86,32152,15.5,74980.0,3.45,-23.09,-23.39,0,*7B
1508094145.11,32153,15.44,74978.5,3.43,-23.03,-23.33,0,*7C
1508094146.33,32154,15.5,74978.5,3.43,-22.87,-23.19,0,*7E
1508094147.58,32155,15.44,74976.5,3.43,-23.03,-23.33,0,*7A
1508094148.81,32156,15.44,74976.8,3.43,-23.09,-23.33,0,*73
1508094150.04,32157,15.5,74980.3,3.43,-23.09,-23.33,0,*72
1508094151.29,32158,15.44,74980.0,3.43,-23.03,-23.23,0,*76
1508094152.55,32159,15.44,74976.0,3.45,-22.77,-22.93,0,*79
1508094153.79,32160,15.44,74978.5,3.43,-22.93,-23.19,0,*7C
1508094154.99,32161,15.44,74976.5,3.43,-23.09,-23.39,0,*7D
1508094156.22,32162,15.44,74978.8,3.43,-23.09,-23.23,0,*75
1508094157.45,32163,15.44,74978.3,3.43,-22.93,-23.19,0,*7F
1508094158.71,32164,15.44,74976.0,3.43,-23.03,-23.23,0,*79
1508094159.96,32165,15.44,74976.8,3.43,-22.77,-23.03,0,*78
1508094161.16,32166,15.44,74976.5,3.43,-22.67,-22.87,0,*77
1508094162.41,32167,15.44,74974.3,3.43,-22.73,-22.77,0,*7C
1508094163.64,32168,15.44,74974.8,3.43,-22.73,-22.93,0,*79
1508094164.87,32169,15.44,74972.8,3.43,-22.77,-22.93,0,*7C
1508094166.07,32170,15.44,74974.8,3.43,-22.87,-23.09,0,*79
1508094167.3,32171,15.44,74978.8,3.43,-22.73,-22.93,0,*71
1508094168.52,32172,15.44,74978.8,3.43,-22.73,-22.93,0,*72
1508094169.75,32173,15.44,74976.5,3.43,-22.41,-22.77,0,*78
1508094171.0,32174,15.44,74976.3,3.45,-22.87,-23.03,0,*71
1508094172.2,32175,15.5,74976.8,3.43,-22.67,-22.87,0,*75
1508094173.43,32176,15.44,74978.0,3.43,-22.93,-23.19,0,*7B
1508094174.68,32177,15.44,74972.0,3.43,-22.73,-23.03,0,*7F
1508094175.9,32178,15.44,74976.5,3.43,-22.87,-23.03,0,*7B
1508094177.13,32179,15.44,74974.8,3.43,-22.53,-22.73,0,*75
1508094178.36,32180,15.44,74976.5,3.43,-22.73,-22.93,0,*7F
1508094179.61,32181,15.44,74978.0,3.45,-22.77,-22.93,0,*7C
1508094180.84,32182,15.44,74976.0,3.45,-22.87,-23.09,0,*72
1508094182.04,32183,15.44,74974.5,3.43,-22.67,-22.87,0,*7C
1508094183.29,32184,15.44,74980.3,3.45,-22.73,-22.93,0,*7D
1508094184.57,32185,15.44,74978.5,3.45,-22.77,-23.03,0,*70
1508094185.83,32186,15.44,74978.5,3.45,-22.77,-22.93,0,*7B
1508094187.08,32187,15.44,74978.0,3.43,-20.53,-21.97,0,*7F
1508094188.33,32188,15.44,74974.8,3.45,-20.25,-21.67,0,*78
1508094189.61,32189,15.44,74978.8,3.45,-20.53,-21.97,0,*77
1508094190.83,32190,15.44,74976.5,3.43,-20.63,-21.97,0,*7A
1508094192.03,32191,15.44,74976.8,3.43,-20.25,-21.77,0,*77
1508094193.3,32192,15.44,74976.5,3.45,-20.35,-21.83,0,*78
1508094194.53,32193,15.44,74976.5,3.45,-20.39,-21.77,0,*7E
1508094195.78,32194,15.44,74972.8,3.43,-20.49,-21.83,0,*73
1508094197.06,32195,15.44,74972.8,3.45,-20.49,-21.83,0,*74
1508094198.3,32196,15.44,74974.3,3.43,-20.53,-21.97,0,*7F
1508094199.53,32197,15.44,74974.8,3.43,-20.63,-21.97,0,*7D
1508094200.76,32198,15.44,74974.8,3.45,-20.63,-22.07,0,*7E
1508094202.0,32199,15.44,74978.0,3.45,-20.69,-22.21,0,*71
1508094203.21,32200,15.44,74974.0,3.43,-20.63,-22.07,0,*7A
1508094204.46,32201,15.44,74974.0,3.45,-20.53,-22.11,0,*79
1508094205.71,32202,15.44,74974.5,3.45,-20.53,-22.07,0,*7D
1508094206.98,32203,15.44,74974.3,3.45,-20.53,-21.97,0,*76
1508094208.2,32204,15.44,74974.5,3.43,-20.73,-22.21,0,*7B
1508094209.4,32205,15.44,74976.0,3.43,-20.69,-22.07,0,*75
1508094210.62,32206,15.44,74978.3,3.43,-20.49,-21.93,0,*7A
1508094211.87,32207,15.44,74978.3,3.45,-20.53,-22.07,0,*78
1508094213.1,32208,15.44,74978.3,3.43,-20.63,-21.97,0,*78
1508094214.3,32209,15.44,74976.0,3.43,-20.63,-22.07,0,*73
1508094215.55,32210,15.44,74976.8,3.45,-20.49,-21.93,0,*7B
1508094216.75,32211,15.44,74974.8,3.43,-20.69,-22.11,0,*77
1508094218.0,32212,15.44,74976.5,3.43,-20.53,-21.97,0,*70
1508094219.22,32213,15.5,74982.3,3.45,-20.73,-22.07,0,*7F
1508094220.47,32214,15.44,74976.0,3.45,-20.49,-21.93,0,*7F
1508094221.7,32215,15.44,74976.8,3.45,-20.69,-22.07,0,*72
1508094222.92,32216,15.44,74980.0,3.45,-20.69,-22.07,0,*71
1508094224.17,32217,15.44,74980.3,3.43,-20.49,-21.83,0,*7B
1508094225.37,32218,15.44,74976.0,3.43,-20.73,-22.11,0,*75
1508094226.59,32219,15.44,74976.8,3.43,-20.35,-21.77,0,*75
1508094227.81,32220,15.44,74976.0,3.43,-20.63,-21.97,0,*72
1508094229.04,32221,15.44,74976.3,3.45,-20.73,-22.11,0,*79
1508094230.26,32222,15.44,74980.5,3.43,-20.63,-21.97,0,*70
1508094231.51,32223,15.44,74978.3,3.43,-20.83,-22.21,0,*71
1508094232.73,32224,15.44,74980.0,3.43,-20.53,-22.07,0,*7F
1508094233.96,32225,15.44,74980.0,3.41,-20.73,-22.03,0,*7A
1508094235.19,32226,15.44,74980.0,3.41,-20.69,-22.11,0,*71
1508094236.44,32227,15.44,74980.8,3.41,-20.73,-22.17,0,*7D
1508094237.71,32228,15.44,74978.3,3.41,-20.59,-21.87,0,*70
1508094238.94,32229,15.44,74976.0,3.41,-20.69,-22.03,0,*7D
1508094240.19,32230,15.44,74978.3,3.41,-20.79,-22.27,0,*72
1508094241.41,32231,15.44,74980.3,3.43,-20.83,-22.11,0,*71
1508094242.67,32232,15.44,74978.5,3.41,-20.73,-22.17,0,*79
1508094243.9,32233,15.44,74978.3,3.41,-20.89,-22.27,0,*7E
1508094245.16,32234,15.44,74978.5,3.41,-20.59,-21.97,0,*7C
1508094246.39,32235,15.44,74978.5,3.41,-20.69,-22.03,0,*70
1508094247.59,32236,15.44,74978.8,3.39,-20.69,-22.03,0,*7C
1508094248.81,32237,15.44,74980.5,3.41,-20.73,-22.27,0,*7F
1508094250.05,32238,15.44,74978.8,3.41,-20.59,-22.03,0,*7E
1508094251.31,32239,15.44,74978.0,3.41,-20.43,-21.87,0,*7B
1508094252.57,32240,15.44,74978.8,3.41,-20.59,-21.97,0,*7F
1508094253.8,32241,15.44,74982.8,3.41,-20.69,-22.03,0,*73
1508094255.06,32242,15.44,74976.0,3.41,-20.43,-21.83,0,*73
1508094256.32,32243,15.44,74980.8,3.41,-20.43,-21.87,0,*76
1508094257.6,32244,15.44,74978.8,3.41,-20.53,-21.87,0,*70
1508094258.83,32245,15.44,74982.5,3.41,-20.73,-22.03,0,*7C
1508094260.08,32246,15.44,74978.0,3.43,-20.49,-21.83,0,*7F
1508094261.34,32247,15.44,74980.0,3.41,-20.73,-22.17,0,*7B
1508094262.61,32248,15.44,74980.8,3.41,-20.53,-21.97,0,*7D
1508094263.87,32249,15.44,74980.3,3.41,-20.53,-22.03,0,*72
1508094265.13,32250,15.44,74982.5,3.41,-20.43,-21.87,0,*74
1508094266.39,32251,15.44,74978.5,3.41,-20.73,-22.17,0,*7C
1508094267.58,32252,15.44,74978.8,3.43,-20.73,-22.11,0,*7B
1508094268.78,32253,15.44,74982.3,3.39,-20.73,-22.11,0,*77
1508094270.02,32254,15.44,74978.0,3.41,-20.59,-22.03,0,*74
1508094271.22,32255,15.44,74980.5,3.39,-20.69,-22.03,0,*79
1508094272.44,32256,15.44,74978.3,3.41,-20.73,-22.11,0,*7D
1508094273.7,32257,15.44,74976.0,3.41,-20.25,-21.67,0,*7D
1508094274.93,32258,15.44,74980.5,3.39,-20.43,-21.83,0,*77
1508094276.18,32259,15.44,74976.5,3.41,-20.39,-21.83,0,*74
1508094277.4,32260,15.44,74978.3,3.41,-20.29,-21.73,0,*70
1508094278.68,32261,15.44,74976.0,3.41,-20.53,-21.87,0,*77
1508094279.88,32262,15.44,74982.0,3.43,-20.69,-22.11,0,*73
1508094281.1,32263,15.44,74978.5,3.43,-20.69,-22.21,0,*71
1508094282.36,32264,15.44,74978.0,3.41,-20.53,-22.03,0,*7D
1508094283.58,32265,15.44,74976.5,3.41,-20.69,-22.11,0,*76
1508094284.81,32266,15.44,74980.3,3.41,-20.73,-22.11,0,*7E
1508094286.04,32267,15.44,74980.0,3.41,-20.69,-22.11,0,*74
1508094287.27,32268,15.44,74978.5,3.41,-20.69,-22.03,0,*78
1508094288.5,32269,15.44,74978.5,3.41,-20.69,-22.11,0,*7A
1508094289.73,32270,15.44,74978.8,3.41,-20.59,-22.03,0,*72
1508094290.94,32271,15.44,74976.5,3.39,-20.59,-22.11,0,*7F
1508094292.16,32272,15.44,74976.5,3.41,-20.73,-22.11,0,*7B
1508094293.44,32273,15.44,74978.5,3.41,-20.53,-21.87,0,*74
1508094294.67,32274,15.44,74980.3,3.39,-20.53,-22.03,0,*73
1508094295.9,32275,15.44,74980.3,3.39,-20.59,-21.97,0,*76
1508094297.17,32276,15.44,74976.0,3.41,-20.53,-21.97,0,*70
1508094298.4,32277,15.44,74978.5,3.39,-20.43,-21.83,0,*7A
1508094299.63,32278,15.44,74976.0,3.41,-20.39,-21.73,0,*78
1508094300.86,32279,15.44,74974.8,3.41,-20.69,-22.03,0,*78
1508094302.11,32280,15.44,74978.5,3.41,-20.53,-22.03,0,*77
1508094303.4,32281,15.44,74980.3,3.41,-20.53,-21.87,0,*79
1508094304.63,32282,15.44,74980.3,3.41,-20.69,-22.03,0,*7C
1508094305.89,32283,15.44,74978.3,3.41,-20.69,-22.17,0,*78
1508094307.14,32284,15.44,74976.8,3.41,-20.59,-21.97,0,*77
1508094308.37,32285,15.44,74978.5,3.39,-20.59,-21.97,0,*79
1508094309.62,32286,15.44,74976.5,3.43,-20.53,-21.97,0,*7D
1508094310.9,32287,15.44,74976.8,3.41,-20.53,-21.87,0,*7F
1508094312.15,32288,15.44,74978.8,3.41,-20.79,-22.27,0,*71
1508094313.38,32289,15.44,74978.3,3.41,-20.69,-22.11,0,*74
1508094314.58,32290,15.44,74976.0,3.39,-20.69,-22.03,0,*70
1508094315.78,32291,15.44,74978.0,3.39,-20.73,-22.11,0,*79
1508094317.04,32292,15.44,74980.0,3.41,-20.43,-21.83,0,*7E
1508094318.32,32293,15.44,74978.8,3.41,-20.53,-21.87,0,*7A
1508094319.53,32294,15.44,74980.0,3.39,-20.59,-22.03,0,*77
1508094320.8,32295,15.44,74978.3,3.41,-20.53,-21.97,0,*7D
1508094322.05,32296,15.44,74978.3,3.41,-20.29,-21.83,0,*76
1508094323.28,32297,15.44,74980.0,3.41,-20.43,-21.73,0,*74
1508094324.54,32298,15.44,74976.0,3.41,-20.43,-21.83,0,*74
1508094325.77,32299,15.44,74980.3,3.43,-20.39,-21.83,0,*7A
1508094327.04,32300,15.44,74974.8,3.41,-20.53,-21.97,0,*70
1508094328.31,32301,15.44,74976.3,3.41,-20.59,-21.87,0,*7A
1508094329.53,32302,15.44,74982.8,3.41,-20.39,-21.73,0,*74
1508094330.79,32303,15.44,74976.0,3.41,-20.43,-21.83,0,*77
1508094332.04,32304,15.44,74976.8,3.43,-20.49,-21.83,0,*78
1508094333.29,32305,15.44,74976.8,3.43,-20.35,-21.67,0,*78
1508094334.51,32306,15.44,74978.3,3.43,-20.35,-21.77,0,*7A
1508094335.75,32307,15.44,74978.5,3.45,-20.35,-21.77,0,*7D
1508094337.0,32308,15.44,74974.3,3.43,-20.35,-21.67,0,*75
1508094338.2,32309,15.44,74978.0,3.43,-20.39,-21.77,0,*79
1508094339.45,32310,15.44,74978.3,3.45,-20.49,-21.77,0,*70
1508094340.68,32311,15.44,74980.0,3.45,-20.39,-21.77,0,*76
1508094341.93,32312,15.44,74976.5,3.43,-20.53,-21.97,0,*71
1508094343.13,32313,15.44,74978.8,3.43,-20.39,-21.77,0,*72
1508094344.39,32314,15.44,74980.5,3.45,-20.39,-21.83,0,*78
1508094345.59,32315,15.44,74978.5,3.43,-20.39,-21.77,0,*74
1508094346.79,32316,15.44,74980.5,3.43,-20.39,-21.93,0,*7D
1508094348.01,32317,15.44,74976.8,3.43,-20.35,-21.77,0,*7A
1508094349.27,32318,15.44,74976.0,3.45,-20.39,-21.83,0,*74
1508094350.5,32319,15.44,74980.0,3.43,-20.39,-21.67,0,*79
1508094351.71,32320,15.44,74978.0,3.43,-20.19,-21.63,0,*75
1508094352.97,32321,15.44,74978.5,3.45,-20.25,-21.67,0,*79
1508094354.19,32322,15.44,74976.8,3.43,-20.39,-21.83,0,*7B
1508094355.46,32323,15.44,74976.5,3.45,-20.35,-21.83,0,*70
1508094356.69,32324,15.44,74976.3,3.45,-20.25,-21.77,0,*7D
1508094357.96,32325,15.44,74978.0,3.45,-20.35,-21.83,0,*76
1508094359.2,32326,15.44,74978.5,3.45,-20.35,-21.77,0,*7E
1508094360.45,32327,15.44,74978.0,3.45,-20.35,-21.77,0,*7F
1508094361.67,32328,15.44,74978.5,3.45,-20.25,-21.77,0,*71
1508094362.93,32329,15.44,74974.0,3.45,-20.39,-21.83,0,*76
1508094364.15,32330,15.44,74976.0,3.45,-20.25,-21.77,0,*78
1508094365.42,32331,15.44,74980.3,3.45,-20.35,-21.67,0,*79
1508094366.67,32332,15.44,74978.0,3.49,-20.19,-21.73,0,*7D
1508094367.93,32333,15.44,74980.5,3.49,-20.49,-21.93,0,*77
1508094369.16,32334,15.44,74976.5,3.49,-20.59,-22.07,0,*7F
1508094370.41,32335,15.44,74976.8,3.49,-20.49,-22.03,0,*7B
1508094371.67,32336,15.44,74978.5,3.49,-20.49,-21.93,0,*72
1508094372.93,32337,15.44,74978.8,3.49,-20.43,-21.87,0,*7C
1508094374.17,32338,15.44,74974.3,3.49,-20.43,-21.93,0,*76
1508094375.42,32339,15.44,74972.5,3.49,-20.35,-21.77,0,*7C
1508094376.64,32340,15.44,74974.5,3.49,-20.25,-21.73,0,*77
1508094377.87,32341,15.44,74974.8,3.49,-19.99,-21.63,0,*7A
1508094379.09,32342,15.44,74974.5,3.49,-20.29,-21.63,0,*78
1508094380.31,32343,15.44,74972.3,3.51,-20.09,-21.57,0,*75
1508094381.56,32344,15.44,74976.0,3.51,-20.53,-21.97,0,*71
1508094382.81,32345,15.44,74976.5,3.49,-20.49,-21.93,0,*76
1508094384.0,32346,15.44,74976.8,3.51,-20.29,-21.73,0,*74
1508094385.26,32347,15.44,74976.5,3.51,-20.53,-21.87,0,*73
1508094386.49,32348,15.44,74976.0,3.51,-20.39,-21.87,0,*70
1508094387.73,32349,15.44,74976.0,3.49,-20.59,-22.03,0,*71
1508094388.98,32350,15.44,74976.3,3.49,-20.49,-21.93,0,*72
1508094390.22,32351,15.44,74974.8,3.51,-20.43,-21.87,0,*75
1508094391.45,32352,15.44,74976.3,3.49,-20.59,-22.03,0,*7B
1508094392.69,32353,15.44,74974.0,3.49,-20.59,-22.07,0,*7E
1508094393.92,32354,15.44,74974.8,3.49,-20.43,-21.93,0,*7C
1508094395.19,32355,15.44,74974.5,3.49,-20.43,-21.87,0,*78
1508094396.46,32356,15.44,74970.8,3.49,-20.35,-21.87,0,*7A
1508094397.65,32357,15.44,74978.5,3.51,-20.29,-21.73,0,*74
1508094398.86,32358,15.44,74974.5,3.51,-20.39,-21.93,0,*74
1508094400.11,32359,15.44,74976.0,3.49,-20.35,-21.77,0,*7A
1508094401.36,32360,15.44,74972.0,3.51,-20.15,-21.67,0,*7A
1508094402.59,32361,15.44,74972.8,3.51,-20.43,-21.87,0,*76
1508094403.87,32362,15.44,74974.5,3.49,-20.35,-21.87,0,*7D
1508094405.12,32363,15.44,74972.8,3.51,-20.15,-21.67,0,*79
1508094406.35,32364,15.44,74972.5,3.51,-20.25,-21.67,0,*7D
1508094407.57,32365,15.44,74972.8,3.49,-20.29,-21.77,0,*78
1508094408.78,32366,15.44,74978.3,3.51,-20.43,-22.03,0,*7E
1508094410.02,32367,15.44,74974.8,3.53,-20.29,-21.83,0,*7A
1508094411.25,32368,15.44,74978.8,3.49,-20.29,-21.77,0,*75
1508094412.47,32369,15.44,74972.8,3.51,-20.25,-21.67,0,*70
1508094413.67,32370,15.44,74978.5,3.51,-20.25,-21.73,0,*7D
1508094414.89,32371,15.44,74978.5,3.49,-20.29,-21.77,0,*7D
1508094416.15,32372,15.44,74976.3,3.53,-20.39,-21.83,0,*7F
1508094417.38,32373,15.44,74976.8,3.51,-20.43,-21.97,0,*74
1508094418.61,32374,15.44,74976.8,3.51,-20.43,-21.97,0,*73
1508094419.85,32375,15.44,74976.0,3.53,-20.29,-21.83,0,*79
1508094421.09,32376,15.44,74976.3,3.55,-20.39,-21.87,0,*79
1508094422.32,32377,15.44,74980.8,3.53,-20.59,-22.11,0,*74
1508094423.53,32378,15.44,74976.5,3.51,-20.43,-22.03,0,*71
1508094424.78,32379,15.44,74976.0,3.53,-20.73,-22.17,0,*74
1508094426.02,32380,15.44,74978.3,3.53,-20.39,-22.03,0,*79
1508094427.28,32381,15.44,74976.5,3.53,-20.39,-21.87,0,*77
1508094428.48,32382,15.44,74976.8,3.51,-20.43,-22.03,0,*74
1508094429.74,32383,15.44,74980.5,3.53,-20.59,-21.97,0,*72
1508094430.99,32384,15.44,74976.0,3.53,-20.39,-21.97,0,*73
1508094432.2,32385,15.44,74978.3,3.51,-20.43,-22.03,0,*73
1508094433.43,32386,15.44,74976.5,3.51,-20.39,-21.87,0,*72
1508094434.67,32387,15.44,74976.3,3.51,-20.43,-21.97,0,*7F
1508094435.9,32388,15.44,74978.8,3.51,-20.43,-21.87,0,*71
1508094437.13,32389,15.44,74974.5,3.51,-20.53,-22.11,0,*7D
1508094438.34,32390,15.44,74978.0,3.51,-20.59,-22.11,0,*7F
1508094439.54,32391,15.44,74978.5,3.51,-20.43,-22.03,0,*76
1508094440.8,32392,15.44,74976.3,3.53,-20.53,-22.03,0,*76
1508094442.05,32393,15.44,74976.3,3.53,-20.39,-21.97,0,*75
1508094443.31,32394,15.44,74982.0,3.49,-20.63,-22.21,0,*78
1508094444.54,32395,15.44,74980.5,3.53,-20.63,-22.27,0,*74
1508094445.77,32396,15.44,74978.8,3.53,-20.59,-22.11,0,*7B
1508094446.98,32397,15.44,74978.0,3.51,-20.63,-22.27,0,*74
1508094448.23,32398,15.44,74980.3,3.53,-20.73,-22.31,0,*7F
1508094449.46,32399,15.44,74976.5,3.53,-20.73,-22.27,0,*79
1508094450.68,32400,15.44,74976.5,3.51,-20.53,-22.03,0,*78
1508094451.91,32401,15.44,74978.3,3.51,-20.53,-22.11,0,*7A
1508094453.14,32402,15.44,74980.0,3.51,-20.39,-21.97,0,*78
1508094454.4,32403,15.44,74976.5,3.53,-20.39,-21.87,0,*7A
1508094455.63,32404,15.44,74976.5,3.51,-20.43,-21.97,0,*73
1508094456.85,32405,15.44,74978.5,3.51,-20.29,-21.83,0,*7B
1508094458.1,32406,15.44,74978.0,3.53,-20.25,-21.83,0,*76
1508094459.35,32407,15.44,74978.8,3.53,-20.39,-21.97,0,*7F
1508094460.63,32408,15.44,74976.8,3.53,-20.35,-21.83,0,*79
1508094461.86,32409,15.44,74980.0,3.53,-20.39,-22.03,0,*7F
1508094463.09,32410,15.44,74978.3,3.51,-20.39,-21.97,0,*7B
1508094464.35,32411,15.44,74976.0,3.53,-20.59,-22.17,0,*75
1508094465.56,32412,15.44,74976.5,3.55,-20.59,-22.11,0,*76
1508094466.76,32413,15.44,74976.5,3.55,-20.69,-22.27,0,*71
1508094467.99,32414,15.44,74976.8,3.51,-20.63,-22.31,0,*7F
1508094469.2,32415,15.44,74980.8,3.51,-20.59,-22.11,0,*75
1508094470.41,32416,15.44,74976.5,3.51,-20.59,-22.27,0,*73
1508094471.69,32417,15.44,74978.3,3.53,-20.53,-22.17,0,*79
1508094472.94,32418,15.44,74982.0,3.53,-20.29,-21.83,0,*75
1508094474.16,32419,15.44,74982.0,3.55,-20.25,-21.83,0,*7E
1508094475.39,32420,15.44,74976.3,3.53,-20.63,-22.27,0,*7D
1508094476.68,32421,15.44,74976.0,3.53,-20.79,-22.47,0,*71
1508094477.9,32422,15.44,74976.8,3.51,-20.79,-22.41,0,*76
1508094479.1,32423,15.44,74980.0,3.51,-20.59,-22.11,0,*70
1508094480.31,32424,15.44,74980.3,3.51,-20.43,-22.03,0,*7F
1508094481.57,32425,15.44,74974.8,3.53,-20.39,-21.87,0,*7E
1508094482.83,32426,15.44,74968.5,3.53,-20.53,-22.03,0,*7E
1508094484.11,32427,15.44,74974.5,3.53,-20.79,-22.31,0,*76
1508094485.37,32428,15.44,74974.8,3.53,-20.89,-22.47,0,*77
1508094486.57,32429,15.44,74976.8,3.51,-20.73,-22.27,0,*77
1508094487.8,32430,15.44,74978.8,3.51,-20.73,-22.47,0,*79
1508094489.04,32431,15.44,74976.0,3.51,-20.89,-22.47,0,*7D
1508094490.29,32432,15.44,74976.0,3.49,-20.63,-22.21,0,*73
1508094491.52,32433,15.44,74972.0,3.51,-20.53,-22.11,0,*7B
1508094492.75,32434,15.44,74976.5,3.51,-20.53,-22.11,0,*7C
1508094494.0,32435,15.44,74978.0,3.51,-20.53,-22.17,0,*7B
1508094495.29,32436,15.44,74976.0,3.49,-20.79,-22.47,0,*7C
1508094496.5,32437,15.44,74978.0,3.51,-20.59,-22.27,0,*70
1508094497.73,32438,15.44,74976.8,3.51,-20.63,-22.31,0,*71
1508094498.98,32439,15.44,74976.8,3.51,-20.79,-22.31,0,*7B
1508094500.22,32440,15.44,74980.0,3.51,-20.89,-22.47,0,*7B
1508094501.45,32441,15.44,74976.8,3.49,-20.93,-22.63,0,*7E
1508094502.67,32442,15.44,74978.5,3.51,-20.79,-22.41,0,*70
1508094503.88,32443,15.44,74976.3,3.51,-20.89,-22.57,0,*79
1508094505.16,32444,15.44,74976.0,3.49,-20.79,-22.31,0,*78